sat.trackr.live / text

‹ back to catalog

STARLINK-31259

NORAD 59076 · 2024-041C

PAYLOAD ACTIVE UNKNOWN

§ Identity

Operator
Country
US
Launch date
2024-02-29
Launch site
AFETR
Launch vehicle
Mass (kg)
RCS (m²)

Purposes: comms

External: N2YO · Heavens-Above · Gunter

§ Orbital elements

Epoch: 2026-09-20T18:56:16.011744Z

Period
94.27 min
Inclination
43.0034°
Eccentricity
0.0000877
Mean motion
15.27570470 rev/d
Perigee alt
482.5 km
Apogee alt
483.7 km
Semi-major
6,861.2 km
B*
-1.4093e-5
RAAN
288.5292°
Arg perigee
282.8394°
Mean anomaly
77.2360°
Rev number
14,306

§ Raw data

STARLINK-312591 59076U 24041C   26263.78907421 -.00000650  00000+0 -14093-4 0  99982 59076  43.0034 288.5292 0000877 282.8394  77.2360 15.27570470143064

JSON: /api/v1/satellites/59076 · /tle

For live sub-satellite position, see the globe view (requires WebGL).

§ Visibility from observer

Set your observer location to see the next 7 days of passes ≥ 10°. The values pass through the URL so the page stays shareable.

No JS? Fill the form by hand. The geolocation button needs JavaScript.